Middlebury State AP, Middlebu, VT

4:30 PM EDT on June 26, 2017 (GMT -0400)
Middlebury State AP, Middlebu

Weather History for K6B0 - January, 2014

Change the Weather History Date:

Thursday, January 9, 2014

  Actual Average (KRUT) Record (KRUT)
Temperature  
Mean Temperature 18 °F -  
Max Temperature 23 °F 27 °F 59 °F (2008)
Min Temperature 12 °F 6 °F -20 °F (1968)
Degree Days  
Heating Degree Days 48    
Moisture  
Dew Point 7 °F    
Average Humidity 61    
Maximum Humidity 77    
Minimum Humidity 46    
Precipitation  
Precipitation 0.00 in - - ()
Sea Level Pressure  
Sea Level Pressure 30.50 in    
Wind  
Wind Speed 3 mph (ESE)    
Max Wind Speed 8 mph    
Max Gust Speed -    
Visibility 10 miles    
Events      
Averages and records for this station are not official NWS values.
T = Trace of Precipitation, MM = Missing Value Source: NWS Daily Summary

Daily Weather History Graph

Daily Weather History Graph

Search for Another Location

Airport or City:

Trip Planner

Search our weather history database for the weather conditions in past years. The results will help you decide how hot, cold, wet, or windy it might be!

Date:

Astronomy

Jan. 09, 2014 Rise Set
Actual Time 7:26 AM EST 4:33 PM EST
Civil Twilight 6:53 AM EST 5:05 PM EST
Nautical Twilight 6:17 AM EST 5:41 PM EST
Astronomical Twilight 5:42 AM EST 6:16 PM EST
Moon 12:03 PM EST (1/9) 1:25 AM EST (1/9)
Length of Visible Light 10h 11m
Length of Day
9h 07m
Waxing Gibbous, 66% of the Moon is Illuminated
Jan 9
Waxing Gibbous
Jan 15
Full
Jan 24
Last Quarter
Jan 30
New
Feb 6
First Quarter

Hourly Weather History & Observations

Time (EST) Temp. Windchill Dew Point Humidity Pressure Visibility Wind Dir Wind Speed Gust Speed Precip Events Conditions
12:15 AM 15.4 °F 5.6 °F 4.1 °F 61% 30.37 in 10.0 mi ESE 6.9 mph - N/A   Overcast
12:35 AM 15.4 °F 8.1 °F 4.1 °F 61% 30.37 in 10.0 mi East 4.6 mph - N/A   Overcast
12:55 AM 15.3 °F 4.4 °F 4.1 °F 61% 30.37 in 10.0 mi ESE 8.1 mph - N/A   Overcast
1:15 AM 15.3 °F 6.6 °F 3.9 °F 61% 30.37 in 10.0 mi ESE 5.8 mph - N/A   Overcast
1:35 AM 15.1 °F 5.2 °F 4.1 °F 62% 30.38 in 10.0 mi ESE 6.9 mph - N/A   Overcast
1:55 AM 14.9 °F 9.2 °F 3.9 °F 62% 30.38 in 10.0 mi East 3.5 mph - N/A   Overcast
2:15 AM 14.7 °F - 3.9 °F 62% 30.38 in 10.0 mi Calm Calm - N/A   Overcast
2:35 AM 14.7 °F 5.9 °F 4.1 °F 63% 30.39 in 10.0 mi ESE 5.8 mph - N/A   Mostly Cloudy
2:55 AM 14.2 °F 8.4 °F 4.3 °F 65% 30.40 in 10.0 mi ESE 3.5 mph - N/A   Mostly Cloudy
3:15 AM 14.4 °F 5.5 °F 4.3 °F 64% 30.39 in 10.0 mi East 5.8 mph - N/A   Mostly Cloudy
3:35 AM 14.9 °F 9.2 °F 4.5 °F 63% 30.40 in 10.0 mi East 3.5 mph - N/A   Overcast
3:55 AM 14.9 °F 9.2 °F 4.3 °F 63% 30.40 in 10.0 mi East 3.5 mph - N/A   Overcast
4:15 AM 15.3 °F 9.6 °F 4.6 °F 63% 30.40 in 10.0 mi East 3.5 mph - N/A   Overcast
4:35 AM 15.4 °F - 5.0 °F 63% 30.42 in 10.0 mi Calm Calm - N/A   Overcast
4:55 AM 15.4 °F - 5.4 °F 64% 30.43 in 10.0 mi Calm Calm - N/A   Overcast
5:15 AM 15.4 °F - 5.9 °F 66% 30.43 in 10.0 mi Calm Calm - N/A   Overcast
5:35 AM 14.9 °F - 5.9 °F 68% 30.44 in 10.0 mi Calm Calm - N/A   Overcast
5:55 AM 13.6 °F - 6.8 °F 74% 30.45 in 10.0 mi Calm Calm - N/A   Overcast
6:15 AM 13.8 °F - 6.6 °F 73% 30.45 in 10.0 mi Calm Calm - N/A   Overcast
6:35 AM 12.9 °F - 7.0 °F 77% 30.47 in 10.0 mi Calm Calm - N/A   Mostly Cloudy
6:55 AM 12.9 °F - 7.0 °F 77% 30.47 in 10.0 mi Calm Calm - N/A   Mostly Cloudy
7:15 AM 14.2 °F - 7.2 °F 74% 30.48 in 10.0 mi Calm Calm - N/A   Overcast
7:35 AM 14.9 °F - 7.0 °F 71% 30.50 in 10.0 mi Calm Calm - N/A   Overcast
7:55 AM 15.3 °F - 7.5 °F 71% 30.51 in 10.0 mi Calm Calm - N/A   Overcast
8:15 AM 15.6 °F - 8.1 °F 72% 30.52 in 10.0 mi Calm Calm - N/A   Overcast
8:35 AM 16.0 °F - 7.3 °F 69% 30.53 in 10.0 mi Calm Calm - N/A   Overcast
8:55 AM 16.2 °F - 8.1 °F 70% 30.54 in 10.0 mi Calm Calm - N/A   Overcast
9:15 AM 16.5 °F - 7.3 °F 67% 30.55 in 10.0 mi Calm Calm - N/A   Mostly Cloudy
9:35 AM 16.7 °F - 7.5 °F 67% 30.56 in 10.0 mi Calm Calm - N/A   Mostly Cloudy
9:55 AM 18.5 °F - 7.7 °F 63% 30.57 in 10.0 mi Calm Calm - N/A   Mostly Cloudy
10:15 AM 19.0 °F - 7.7 °F 61% 30.57 in 10.0 mi Calm Calm - N/A   Mostly Cloudy
10:35 AM 20.3 °F 15.4 °F 7.9 °F 59% 30.57 in 10.0 mi SW 3.5 mph - N/A   Scattered Clouds
10:55 AM 20.3 °F 15.4 °F 7.9 °F 59% 30.57 in 10.0 mi WNW 3.5 mph - N/A   Scattered Clouds
11:15 AM 21.0 °F - 7.5 °F 56% 30.57 in 10.0 mi Calm Calm - N/A   Mostly Cloudy
11:35 AM 21.0 °F 12.4 °F 7.9 °F 57% 30.56 in 10.0 mi WNW 6.9 mph - N/A   Scattered Clouds
11:55 AM 21.9 °F 13.4 °F 7.9 °F 55% 30.56 in 10.0 mi West 6.9 mph - N/A   Mostly Cloudy
12:15 PM 21.0 °F 16.2 °F 7.2 °F 55% 30.56 in 10.0 mi West 3.5 mph - N/A   Scattered Clouds
12:35 PM 22.6 °F 18.0 °F 6.4 °F 50% 30.55 in 10.0 mi West 3.5 mph - N/A   Clear
12:55 PM 23.2 °F - 7.0 °F 50% 30.55 in 10.0 mi Calm Calm - N/A   Clear
1:15 PM 23.5 °F - 7.5 °F 50% 30.55 in 10.0 mi Calm Calm - N/A   Clear
1:35 PM 23.0 °F - 6.6 °F 50% 30.55 in 10.0 mi Calm Calm - N/A   Clear
1:55 PM 23.7 °F - 6.6 °F 48% 30.55 in 10.0 mi Calm Calm - N/A   Clear
2:15 PM 23.5 °F - 6.8 °F 49% 30.55 in 10.0 mi Calm Calm - N/A   Clear
2:35 PM 23.5 °F - 6.4 °F 48% 30.55 in 10.0 mi Calm Calm - N/A   Clear
2:55 PM 23.5 °F - 6.6 °F 49% 30.56 in 10.0 mi Calm Calm - N/A   Clear
3:35 PM 23.9 °F - 5.9 °F 46% 30.55 in 10.0 mi Calm Calm - N/A   Clear
3:55 PM 23.5 °F 19.1 °F 6.6 °F 49% 30.55 in 10.0 mi ESE 3.5 mph - N/A   Clear
4:15 PM 23.0 °F - 6.4 °F 49% 30.55 in 10.0 mi Calm Calm - N/A   Clear
4:35 PM 22.1 °F - 7.2 °F 53% 30.55 in 10.0 mi Calm Calm - N/A   Clear
4:55 PM 21.4 °F - 7.3 °F 55% 30.55 in 10.0 mi Calm Calm - N/A   Clear
5:15 PM 21.0 °F - 8.1 °F 57% 30.56 in 10.0 mi Calm Calm - N/A   Clear
6:15 PM 19.4 °F 14.3 °F 9.7 °F 66% 30.55 in 10.0 mi East 3.5 mph - N/A   Clear
6:35 PM 21.0 °F 14.6 °F 7.9 °F 57% 30.56 in 10.0 mi East 4.6 mph - N/A   Clear
6:55 PM 20.3 °F 15.4 °F 8.1 °F 59% 30.56 in 10.0 mi East 3.5 mph - N/A   Clear
7:15 PM 21.0 °F 14.6 °F 7.9 °F 57% 30.55 in 10.0 mi ESE 4.6 mph - N/A   Clear
7:35 PM 20.7 °F 13.0 °F 7.9 °F 58% 30.56 in 10.0 mi East 5.8 mph - N/A   Clear
7:55 PM 20.1 °F 13.6 °F 7.7 °F 59% 30.57 in 10.0 mi East 4.6 mph - N/A   Clear
8:15 PM 20.3 °F 13.8 °F 8.2 °F 60% 30.57 in 10.0 mi East 4.6 mph - N/A   Clear
8:35 PM 20.5 °F 12.8 °F 9.3 °F 62% 30.57 in 10.0 mi East 5.8 mph - N/A   Clear
8:55 PM 20.7 °F 13.0 °F 10.0 °F 64% 30.56 in 10.0 mi ESE 5.8 mph - N/A   Clear
9:15 PM 20.3 °F 12.5 °F 10.6 °F 66% 30.55 in 10.0 mi East 5.8 mph - N/A   Clear
9:35 PM 20.7 °F 11.9 °F 10.8 °F 66% 30.55 in 10.0 mi ESE 6.9 mph - N/A   Clear
9:55 PM 20.3 °F 12.5 °F 10.8 °F 67% 30.55 in 10.0 mi ESE 5.8 mph - N/A   Clear
10:15 PM 20.7 °F 13.0 °F 10.4 °F 65% 30.54 in 10.0 mi ESE 5.8 mph - N/A   Clear
10:35 PM 19.9 °F 13.4 °F 10.2 °F 66% 30.54 in 10.0 mi SE 4.6 mph - N/A   Clear
10:55 PM 19.9 °F 13.4 °F 9.9 °F 65% 30.53 in 10.0 mi ESE 4.6 mph - N/A   Clear
11:15 PM 20.3 °F 12.5 °F 9.5 °F 63% 30.52 in 10.0 mi East 5.8 mph - N/A   Clear
11:35 PM 20.8 °F 14.4 °F 8.6 °F 59% 30.51 in 10.0 mi East 4.6 mph - N/A   Clear
11:55 PM 21.0 °F 14.6 °F 8.6 °F 59% 30.50 in 10.0 mi East 4.6 mph - N/A   Clear